Regional Weather Roundup
Issued by NWS Northern Indiana

Home | Current Version | Previous Version | Text Only | Print | Product List | Glossary On
Versions: 1 2 3 4 5 6 7 8 9 10 11 12 13 14 15 16 17 18 19 20 21 22 23 24 25 26 27 28 29 30 31 32 33 34 35 36 37 38 39 40 41 42 43 44 45 46 47 48 49 50
000
ASUS43 KIWX 150400
RWRIWX

KIWX WEATHER ROUNDUP
NATIONAL WEATHER SERVICE NORTHERN INDIANA
1200 AM EDT MON SEP 15 2014

NOTE: "FAIR" INDICATES FEW OR NO CLOUDS BELOW 12,000 FEET WITH NO
SIGNIFICANT WEATHER AND/OR OBSTRUCTIONS TO VISIBILITY.

* THESE STATIONS ARE NOT UNDER NWS QUALITY CONTROL. THEY ALSO MAY NOT
  REPORT WEATHER SUCH AS PRECIPITATION OR FOG.

INZ001>027-150500-
NORTHERN INDIANA

CITY           SKY/WX    TMP DP  RH WIND       PRES   REMARKS
VALPARAISO     CLEAR     48  47  96 CALM      30.20S
SOUTH BEND     CLEAR     51  46  83 CALM      30.21R
GOSHEN         CLEAR     49  46  90 CALM      30.21R
WARSAW*        CLEAR     46  45  93 CALM      30.21S
ANGOLA*        CLEAR     46  46 100 CALM      30.20F
FORT WAYNE     CLEAR     50  47  89 CALM      30.22S
PERU/GRISSOM   CLEAR     50  50 100 S3        30.20S

$$
INZ028>050-150500-
CENTRAL INDIANA

CITY           SKY/WX    TMP DP  RH WIND       PRES   REMARKS
LAFAYETTE      CLEAR     49  48  97 CALM      30.21R
KOKOMO*        CLEAR     48  45  87 CALM      30.22R
MUNCIE*        CLEAR     49  46  90 CALM      30.21S
INDIANAPOLIS   PTCLDY    55  48  77 W5        30.20S

$$
MIZ043>046-050>051-056>058-064>065-071>073-077>080-150500-
SOUTHWEST LOWER MICHIGAN

CITY           SKY/WX    TMP DP  RH WIND       PRES   REMARKS
BATTLE CREEK   CLEAR     50  45  83 CALM      30.21R
BENTON HARBOR  CLEAR     46  45  96 E3        30.19S
COLDWATER*     CLEAR     47  46  97 CALM      30.21R
HILLSDALE*     CLEAR     44  44 100 CALM      30.21S
HOLLAND        CLEAR     48  44  86 SE3       30.19S
GRAND RAPIDS   CLEAR     47  44  90 S6        30.19F
KALAMAZOO      CLEAR     47  44  90 CALM      30.21R
STURGIS*       CLEAR     46  45  93 CALM      30.20S
THREE RIVERS*  FAIR      49  47  93 CALM      30.21S

$$
OHZ001>008-015>018-024>025-150500-
NORTHWEST OHIO

CITY           SKY/WX    TMP DP  RH WIND       PRES   REMARKS
DEFIANCE       CLEAR     50  46  86 CALM      30.21S
FINDLAY        CLEAR     52  47  83 SE3       30.20F
TOLEDO EXPRESS CLEAR     48  46  93 CALM      30.21S
TOLEDO METCALF CLEAR     50  45  83 SE5       30.22S
LIMA           CLEAR     48  44  86 CALM      30.21S

$$
&&


USA.gov is the U.S. government's official web portal to all federal, state and local government web resources and services.